Location: Foligno
(42.9600°N, 12.7050°E)
Time: 22:17:21
(UTC+02:00)

ISS - Pass Details

Date: 13 October 2018
Orbit: 403 x 408 km, 51.6° (Epoch: 17 October)

Event Time Altitude Azimuth Distance (km) Brightness Sun altitude
Rises 19:56:51 0° 285° (WNW) 2,333 1.7 -16.6°
Reaches altitude 10° 20:00:08 10° 250° (WSW) 1,466 0.0 -17.2°
Maximum altitude 20:01:14 11° 230° (SW) 1,387 -0.5 -17.4°
Drops below altitude 10° 20:02:20 10° 210° (SSW) 1,462 -0.7 -17.6°
Enters shadow 20:05:11 - 178° (S) 2,171 -0.2 -18.2°
